Location: Newark
(23.1300°N, 73.6109°E)
Time: 07:47:10
(UTC+00:00)

Hubble Space Telescope - Pass Details

Date: 31 July 2021
Orbit: 535 x 539 km, 28.5° (Epoch: 26 September)

Event Time Altitude Azimuth Distance (km) Brightness Sun altitude
Rises 16:18:00 0° 285° (WNW) 2,668 5.2 -30.8°
Reaches altitude 10° 16:20:16 10° 282° (WNW) 1,776 4.1 -31.2°
Enters shadow 16:21:28 18° 278° (W) 1,324 3.3 -31.4°
